| time (UTC) | temp F | wind direction | speed MPH | gust MPH | rain 1hr in | rain 24hr in | rain mn in | humidity % | barometer mb |
| 20260502130517 | 43 | 270 | 1.0 | 3.0 | 0.01 | 0.17 | 0.17 | 94 | 1011.6 |
| 20260502123517 | 41 | 0.0 | 1.0 | 0.00 | 0.16 | 0.16 | 96 | 1011.5 | |
| 20260502123017 | 41 | 0.0 | 0.0 | 0.00 | 0.16 | 0.16 | 96 | 1011.6 | |
| 20260502122517 | 41 | 0.0 | 1.0 | 0.00 | 0.16 | 0.16 | 96 | 1011.6 | |
| 20260502122017 | 41 | 0.0 | 1.0 | 0.00 | 0.16 | 0.16 | 96 | 1011.6 | |
| 20260502121517 | 41 | 0.0 | 0.0 | 0.00 | 0.16 | 0.16 | 97 | 1011.5 | |
| 20260502121017 | 41 | 0.0 | 1.0 | 0.00 | 0.16 | 0.16 | 96 | 1011.5 | |
| 20260502120517 | 40 | 0.0 | 0.0 | 0.00 | 0.16 | 0.16 | 97 | 1011.5 | |
| 20260502115517 | 40 | 0.0 | 1.0 | 0.00 | 0.16 | 0.16 | 97 | 1011.5 | |
| 20260502115017 | 40 | 0.0 | 1.0 | 0.00 | 0.16 | 0.16 | 97 | 1011.5 | |
| 20260502114517 | 40 | 0.0 | 0.0 | 0.00 | 0.16 | 0.16 | 97 | 1011.5 | |
| 20260502114017 | 40 | 0.0 | 1.0 | 0.00 | 0.16 | 0.16 | 97 | 1011.6 | |
| 20260502113517 | 40 | 0.0 | 0.0 | 0.00 | 0.16 | 0.16 | 97 | 1011.7 | |
| 20260502113017 | 39 | 0.0 | 0.0 | 0.00 | 0.16 | 0.16 | 97 | 1011.6 | |
| 20260502112517 | 39 | 0.0 | 1.0 | 0.01 | 0.16 | 0.16 | 97 | 1011.6 | |
| 20260502112017 | 39 | 0.0 | 2.0 | 0.01 | 0.16 | 0.16 | 97 | 1011.6 | |
| 20260502111517 | 39 | 90 | 1.0 | 3.0 | 0.01 | 0.16 | 0.16 | 97 | 1011.6 |
| 20260502111017 | 39 | 113 | 1.0 | 3.0 | 0.01 | 0.16 | 0.16 | 97 | 1011.7 |
| 20260502110517 | 39 | 0.0 | 1.0 | 0.01 | 0.16 | 0.16 | 97 | 1011.6 | |
| 20260502110017 | 39 | 90 | 1.0 | 2.0 | 0.01 | 0.16 | 0.16 | 97 | 1011.6 |
| 20260502105517 | 39 | 90 | 1.0 | 2.0 | 0.01 | 0.16 | 0.16 | 97 | 1011.5 |
| 20260502105037 | 39 | 90 | 1.0 | 2.0 | 0.01 | 0.16 | 0.16 | 97 | 1011.5 |
| 20260502104517 | 39 | 0.0 | 1.0 | 0.01 | 0.16 | 0.16 | 97 | 1011.5 | |
| 20260502104017 | 39 | 0.0 | 1.0 | 0.02 | 0.16 | 0.16 | 97 | 1011.5 | |
| 20260502103517 | 39 | 0.0 | 1.0 | 0.02 | 0.16 | 0.16 | 97 | 1011.4 | |
| 20260502103018 | 39 | 0.0 | 0.0 | 0.02 | 0.16 | 0.16 | 97 | 1011.4 | |
| 20260502102517 | 39 | 0.0 | 1.0 | 0.01 | 0.15 | 0.15 | 97 | 1011.3 | |
| 20260502102017 | 39 | 0.0 | 0.0 | 0.02 | 0.15 | 0.15 | 97 | 1011.3 | |
| 20260502101517 | 39 | 0.0 | 1.0 | 0.02 | 0.15 | 0.15 | 97 | 1011.2 | |
| 20260502101017 | 39 | 0.0 | 1.0 | 0.02 | 0.15 | 0.15 | 97 | 1011.2 | |
| 20260502100517 | 38 | 0.0 | 0.0 | 0.02 | 0.15 | 0.15 | 97 | 1011.1 | |
| 20260502091517 | 38 | 0.0 | 1.0 | 0.03 | 0.13 | 0.13 | 97 | 1011.5 | |
| 20260502091017 | 38 | 0.0 | 1.0 | 0.03 | 0.13 | 0.13 | 97 | 1011.5 | |
| 20260502090517 | 38 | 0.0 | 1.0 | 0.04 | 0.13 | 0.13 | 97 | 1011.3 | |
| 20260502090138 | 38 | 0.0 | 2.0 | 0.04 | 0.13 | 0.13 | 97 | 1011.3 | |
| 20260502071517 | 38 | 0.0 | 0.0 | 0.04 | 0.08 | 0.08 | 97 | 1011.5 | |
| 20260502071017 | 38 | 0.0 | 0.0 | 0.03 | 0.07 | 0.07 | 97 | 1011.6 | |
| 20260502070517 | 38 | 0.0 | 0.0 | 0.04 | 0.07 | 0.07 | 97 | 1011.7 | |
| 20260502070017 | 39 | 0.0 | 0.0 | 0.04 | 0.07 | 0.07 | 97 | 1011.8 | |
| 20260502065537 | 39 | 0.0 | 0.0 | 0.03 | 0.06 | 0.06 | 97 | 1011.9 | |
| 20260502065057 | 39 | 0.0 | 0.0 | 0.03 | 0.06 | 0.06 | 97 | 1011.8 | |
| 20260502064517 | 39 | 0.0 | 0.0 | 0.04 | 0.06 | 0.06 | 97 | 1011.8 | |
| 20260502064017 | 39 | 0.0 | 1.0 | 0.03 | 0.05 | 0.05 | 97 | 1011.7 | |
| 20260502063517 | 39 | 0.0 | 0.0 | 0.03 | 0.05 | 0.05 | 97 | 1011.8 | |
| 20260502063017 | 39 | 0.0 | 0.0 | 0.03 | 0.05 | 0.05 | 97 | 1011.8 | |
| 20260502062537 | 39 | 0.0 | 1.0 | 0.03 | 0.05 | 0.05 | 97 | 1011.9 | |
| 20260502062017 | 39 | 0.0 | 0.0 | 0.03 | 0.04 | 0.04 | 97 | 1011.9 | |
| 20260502061519 | 39 | 0.0 | 0.0 | 0.04 | 0.04 | 0.04 | 96 | 1012.0 | |
| 20260502061039 | 39 | 0.0 | 0.0 | 0.04 | 0.04 | 0.04 | 96 | 1012.0 | |
| 20260502060519 | 39 | 0.0 | 0.0 | 0.03 | 0.03 | 0.03 | 96 | 1011.9 | |
| 20260502060020 | 39 | 0.0 | 1.0 | 0.03 | 0.03 | 0.03 | 96 | 1011.9 | |
| 20260502055517 | 39 | 0.0 | 0.0 | 0.03 | 0.03 | 0.03 | 96 | 1011.9 | |
| 20260502055017 | 39 | 0.0 | 0.0 | 0.03 | 0.03 | 0.03 | 96 | 1012.1 | |
| 20260502054517 | 39 | 0.0 | 0.0 | 0.02 | 0.02 | 0.02 | 95 | 1012.1 | |
| 20260502054017 | 39 | 0.0 | 1.0 | 0.02 | 0.02 | 0.02 | 95 | 1012.1 | |
| 20260502053537 | 39 | 0.0 | 1.0 | 0.02 | 0.02 | 0.02 | 95 | 1012.1 | |
| 20260502053057 | 39 | 0.0 | 0.0 | 0.02 | 0.02 | 0.02 | 95 | 1012.1 | |
| 20260502052517 | 39 | 0.0 | 1.0 | 0.02 | 0.02 | 0.02 | 95 | 1012.2 | |
| 20260502052018 | 39 | 0.0 | 0.0 | 0.01 | 0.01 | 0.01 | 94 | 1012.1 | |
| 20260502051517 | 39 | 0.0 | 0.0 | 0.00 | 0.00 | 0.00 | 94 | 1012.2 | |
| 20260502051017 | 39 | 0.0 | 1.0 | 0.00 | 0.00 | 0.00 | 93 | 1012.2 | |
| 20260502050517 | 39 | 0.0 | 0.0 | 0.00 | 0.00 | 0.00 | 92 | 1012.2 | |
| 20260502050017 | 39 | 0.0 | 0.0 | 0.00 | 0.00 | 0.00 | 91 | 1012.2 | |
| 20260502045517 | 39 | 0.0 | 0.0 | 0.00 | 0.00 | 0.00 | 91 | 1012.2 | |
| 20260502045017 | 39 | 0.0 | 1.0 | 0.00 | 0.00 | 0.00 | 90 | 1012.1 | |
| 20260502044517 | 39 | 0.0 | 0.0 | 0.00 | 0.00 | 0.00 | 90 | 1012.2 | |
| 20260502044017 | 39 | 0.0 | 1.0 | 0.00 | 0.00 | 0.00 | 90 | 1012.2 | |
| 20260502043517 | 39 | 0.0 | 0.0 | 0.00 | 0.00 | 0.00 | 90 | 1012.1 | |
| 20260502043017 | 38 | 0.0 | 1.0 | 0.00 | 0.00 | 0.00 | 89 | 1012.1 | |
| 20260502042517 | 38 | 0.0 | 0.0 | 0.00 | 0.00 | 0.00 | 89 | 1012.0 | |
| 20260502042017 | 38 | 0.0 | 0.0 | 0.00 | 0.00 | 0.00 | 89 | 1012.0 | |
| 20260502041517 | 38 | 0.0 | 0.0 | 0.00 | 0.00 | 0.00 | 89 | 1012.0 | |
| 20260502041037 | 38 | 0.0 | 0.0 | 0.00 | 0.00 | 0.00 | 89 | 1012.1 | |
| 20260502040517 | 38 | 0.0 | 0.0 | 0.00 | 0.00 | 0.00 | 89 | 1012.0 | |
| 20260502040017 | 38 | 0.0 | 1.0 | 0.00 | 0.00 | 0.00 | 88 | 1011.9 | |
| 20260502035517 | 38 | 0.0 | 1.0 | 0.00 | 0.00 | 0.00 | 89 | 1011.9 | |
| 20260502035017 | 38 | 0.0 | 0.0 | 0.00 | 0.00 | 0.00 | 89 | 1012.0 | |
| 20260502034517 | 38 | 0.0 | 0.0 | 0.00 | 0.00 | 0.00 | 88 | 1012.0 | |
| 20260502034017 | 38 | 0.0 | 1.0 | 0.00 | 0.00 | 0.00 | 88 | 1012.0 | |
| 20260502033517 | 38 | 0.0 | 2.0 | 0.00 | 0.00 | 0.00 | 88 | 1012.0 | |
| 20260502033017 | 37 | 0.0 | 1.0 | 0.00 | 0.00 | 0.00 | 89 | 1012.0 | |
| 20260502032517 | 37 | 0.0 | 0.0 | 0.00 | 0.00 | 0.00 | 89 | 1012.0 | |
| 20260502032037 | 37 | 0.0 | 1.0 | 0.00 | 0.00 | 0.00 | 89 | 1012.0 | |
| 20260502031517 | 37 | 0.0 | 0.0 | 0.00 | 0.00 | 0.00 | 89 | 1012.0 | |
| 20260502031017 | 37 | 0.0 | 1.0 | 0.00 | 0.00 | 0.00 | 89 | 1012.0 | |
| 20260502030517 | 37 | 0.0 | 1.0 | 0.00 | 0.00 | 0.00 | 89 | 1011.9 | |
| 20260502030037 | 37 | 0.0 | 1.0 | 0.00 | 0.00 | 0.00 | 88 | 1011.9 | |
| 20260502025517 | 37 | 0.0 | 0.0 | 0.00 | 0.00 | 0.00 | 89 | 1011.9 | |
| 20260502025017 | 37 | 0.0 | 1.0 | 0.00 | 0.00 | 0.00 | 89 | 1011.9 | |
| 20260502024517 | 36 | 0.0 | 1.0 | 0.00 | 0.00 | 0.00 | 88 | 1011.8 | |
| 20260502024017 | 37 | 0.0 | 1.0 | 0.00 | 0.00 | 0.00 | 88 | 1011.8 | |
| 20260502023557 | 37 | 0.0 | 0.0 | 0.00 | 0.00 | 0.00 | 89 | 1011.7 | |
| 20260502023017 | 37 | 0.0 | 1.0 | 0.00 | 0.00 | 0.00 | 88 | 1011.7 | |
| 20260502022517 | 37 | 0.0 | 1.0 | 0.00 | 0.00 | 0.00 | 88 | 1011.7 | |
| 20260502022018 | 37 | 0.0 | 1.0 | 0.00 | 0.00 | 0.00 | 87 | 1011.8 | |
| 20260502021517 | 38 | 0.0 | 2.0 | 0.00 | 0.00 | 0.00 | 86 | 1011.8 | |
| 20260502021017 | 38 | 0.0 | 1.0 | 0.00 | 0.00 | 0.00 | 87 | 1011.8 | |
| 20260502020517 | 38 | 0.0 | 1.0 | 0.00 | 0.00 | 0.00 | 85 | 1011.8 | |
| 20260502020017 | 38 | 0.0 | 1.0 | 0.00 | 0.00 | 0.00 | 85 | 1011.8 | |
| 20260502015517 | 39 | 0.0 | 0.0 | 0.00 | 0.00 | 0.00 | 85 | 1011.8 | |
| 20260502015017 | 39 | 45 | 1.0 | 2.0 | 0.00 | 0.00 | 0.00 | 84 | 1011.9 |
| 20260502014517 | 39 | 0.0 | 2.0 | 0.00 | 0.00 | 0.00 | 85 | 1011.9 | |
| 20260502014017 | 39 | 0.0 | 0.0 | 0.00 | 0.01 | 0.00 | 84 | 1011.9 | |
| 20260502013515 | 39 | 0.0 | 0.0 | 0.00 | 0.01 | 0.00 | 84 | 1011.8 | |
| 20260502013017 | 40 | 0.0 | 0.0 | 0.00 | 0.02 | 0.00 | 85 | 1011.8 | |
| 20260502012517 | 40 | 0.0 | 0.0 | 0.00 | 0.02 | 0.00 | 83 | 1011.8 | |
| 20260502012017 | 40 | 0.0 | 0.0 | 0.00 | 0.02 | 0.00 | 83 | 1011.8 | |
| 20260502011517 | 40 | 0.0 | 0.0 | 0.00 | 0.02 | 0.00 | 82 | 1011.8 | |
| 20260502011017 | 40 | 0.0 | 0.0 | 0.00 | 0.02 | 0.00 | 82 | 1011.8 | |
| 20260502010517 | 41 | 0.0 | 0.0 | 0.00 | 0.02 | 0.00 | 82 | 1011.8 | |
| 20260502010017 | 41 | 0.0 | 0.0 | 0.00 | 0.03 | 0.00 | 79 | 1011.7 | |
| 20260502005517 | 41 | 0.0 | 1.0 | 0.00 | 0.03 | 0.00 | 77 | 1011.7 | |
| 20260502005017 | 41 | 0.0 | 0.0 | 0.00 | 0.03 | 0.00 | 80 | 1011.7 | |
| 20260502004517 | 41 | 0.0 | 1.0 | 0.00 | 0.03 | 0.00 | 80 | 1011.6 | |
| 20260502004018 | 40 | 0.0 | 1.0 | 0.00 | 0.03 | 0.00 | 80 | 1011.6 | |
| 20260502003515 | 40 | 0.0 | 0.0 | 0.00 | 0.03 | 0.00 | 79 | 1011.5 | |
| 20260502003015 | 41 | 0.0 | 0.0 | 0.00 | 0.03 | 0.00 | 80 | 1011.4 | |
| 20260502002535 | 41 | 0.0 | 0.0 | 0.00 | 0.03 | 0.00 | 79 | 1011.3 | |
| 20260502002016 | 41 | 0.0 | 0.0 | 0.00 | 0.03 | 0.00 | 77 | 1011.2 | |
| 20260502001515 | 42 | 0.0 | 0.0 | 0.00 | 0.03 | 0.00 | 76 | 1011.2 | |
| 20260502001015 | 42 | 0.0 | 0.0 | 0.00 | 0.03 | 0.00 | 75 | 1011.1 | |
| 20260502000516 | 43 | 0.0 | 0.0 | 0.00 | 0.03 | 0.00 | 75 | 1011.1 | |
| 20260502000015 | 43 | 0.0 | 0.0 | 0.00 | 0.03 | 0.00 | 75 | 1011.1 | |
| 20260501235615 | 44 | 0.0 | 0.0 | 0.00 | 0.03 | 0.00 | 71 | 1011.1 | |
| 20260501235015 | 44 | 0.0 | 0.0 | 0.00 | 0.03 | 0.00 | 68 | 1011.0 | |
| 20260501234515 | 45 | 0.0 | 0.0 | 0.00 | 0.03 | 0.00 | 67 | 1011.0 | |
| 20260501234015 | 45 | 0.0 | 0.0 | 0.00 | 0.03 | 0.00 | 64 | 1010.8 | |
| 20260501233515 | 46 | 0.0 | 0.0 | 0.00 | 0.03 | 0.00 | 58 | 1010.7 | |
| 20260501233015 | 47 | 0.0 | 0.0 | 0.00 | 0.03 | 0.00 | 57 | 1010.7 | |
| 20260501232535 | 47 | 0.0 | 0.0 | 0.00 | 0.04 | 0.00 | 53 | 1010.7 | |
| 20260501232015 | 48 | 0.0 | 1.0 | 0.00 | 0.04 | 0.00 | 52 | 1010.6 | |
| 20260501231535 | 48 | 0.0 | 1.0 | 0.00 | 0.04 | 0.00 | 51 | 1010.5 | |
| 20260501231035 | 49 | 293 | 1.0 | 3.0 | 0.00 | 0.05 | 0.00 | 48 | 1010.4 |
| 20260501230515 | 49 | 293 | 1.0 | 3.0 | 0.00 | 0.05 | 0.00 | 48 | 1010.4 |
| 20260501230015 | 50 | 315 | 1.0 | 3.0 | 0.00 | 0.05 | 0.00 | 46 | 1010.3 |
| 20260501225515 | 50 | 315 | 1.0 | 2.0 | 0.00 | 0.05 | 0.00 | 45 | 1010.4 |
| 20260501225015 | 50 | 293 | 2.0 | 3.0 | 0.00 | 0.06 | 0.00 | 45 | 1010.4 |
| 20260501224536 | 50 | 293 | 1.0 | 4.0 | 0.00 | 0.06 | 0.00 | 44 | 1010.4 |
| 20260501224015 | 50 | 0.0 | 2.0 | 0.00 | 0.07 | 0.00 | 43 | 1010.4 | |
| 20260501223515 | 50 | 0.0 | 1.0 | 0.00 | 0.07 | 0.00 | 44 | 1010.4 | |
| 20260501223015 | 50 | 270 | 1.0 | 2.0 | 0.00 | 0.07 | 0.00 | 44 | 1010.3 |
| 20260501222515 | 51 | 338 | 1.0 | 3.0 | 0.00 | 0.07 | 0.00 | 45 | 1010.3 |
| 20260501222015 | 51 | 315 | 3.0 | 7.0 | 0.00 | 0.07 | 0.00 | 44 | 1010.3 |
| 20260501221515 | 51 | 315 | 2.0 | 4.0 | 0.00 | 0.08 | 0.00 | 44 | 1010.3 |
| 20260501221015 | 51 | 270 | 1.0 | 3.0 | 0.00 | 0.08 | 0.00 | 44 | 1010.2 |
| 20260501220515 | 51 | 293 | 2.0 | 5.0 | 0.00 | 0.08 | 0.00 | 44 | 1010.2 |
| 20260501215515 | 50 | 315 | 2.0 | 4.0 | 0.00 | 0.09 | 0.00 | 44 | 1010.3 |
| 20260501215015 | 51 | 315 | 3.0 | 5.0 | 0.00 | 0.09 | 0.00 | 44 | 1010.3 |
| 20260501214515 | 52 | 315 | 3.0 | 6.0 | 0.00 | 0.09 | 0.00 | 42 | 1010.3 |
| 20260501214015 | 53 | 315 | 4.0 | 9.0 | 0.00 | 0.09 | 0.00 | 42 | 1010.3 |
| 20260501213536 | 53 | 225 | 2.0 | 7.0 | 0.00 | 0.09 | 0.00 | 43 | 1010.2 |
| 20260501213015 | 53 | 315 | 5.0 | 10.0 | 0.00 | 0.09 | 0.00 | 41 | 1010.3 |
| 20260501212515 | 53 | 315 | 6.0 | 12.0 | 0.00 | 0.09 | 0.00 | 41 | 1010.2 |
| 20260501212035 | 53 | 315 | 1.0 | 8.0 | 0.00 | 0.09 | 0.00 | 41 | 1010.2 |
| 20260501211515 | 52 | 203 | 1.0 | 5.0 | 0.00 | 0.09 | 0.00 | 44 | 1010.2 |
| 20260501211015 | 52 | 293 | 2.0 | 6.0 | 0.00 | 0.10 | 0.00 | 45 | 1010.2 |
| 20260501210515 | 53 | 315 | 5.0 | 9.0 | 0.00 | 0.10 | 0.00 | 42 | 1010.2 |
| 20260501210015 | 54 | 315 | 4.0 | 11.0 | 0.00 | 0.10 | 0.00 | 40 | 1010.1 |
| 20260501205515 | 54 | 315 | 2.0 | 6.0 | 0.00 | 0.10 | 0.00 | 41 | 1010.1 |
| 20260501205015 | 54 | 203 | 2.0 | 7.0 | 0.00 | 0.11 | 0.00 | 43 | 1010.1 |
| 20260501204515 | 53 | 315 | 4.0 | 12.0 | 0.00 | 0.11 | 0.00 | 42 | 1010.1 |
| 20260501204015 | 53 | 248 | 2.0 | 8.0 | 0.00 | 0.11 | 0.00 | 43 | 1010.1 |
| 20260501203515 | 52 | 180 | 2.0 | 9.0 | 0.00 | 0.11 | 0.00 | 45 | 1010.0 |
| 20260501203015 | 51 | 0.0 | 3.0 | 0.00 | 0.11 | 0.00 | 44 | 1010.0 | |
| 20260501202515 | 51 | 315 | 1.0 | 4.0 | 0.00 | 0.11 | 0.00 | 46 | 1010.2 |
| 20260501202015 | 51 | 315 | 4.0 | 7.0 | 0.00 | 0.11 | 0.00 | 45 | 1010.1 |
| 20260501201515 | 52 | 315 | 5.0 | 11.0 | 0.00 | 0.11 | 0.00 | 44 | 1010.1 |
| 20260501201016 | 51 | 293 | 1.0 | 7.0 | 0.00 | 0.11 | 0.00 | 47 | 1010.1 |
| 20260501200515 | 50 | 315 | 2.0 | 6.0 | 0.00 | 0.11 | 0.00 | 45 | 1010.1 |
| 20260501200015 | 50 | 315 | 2.0 | 8.0 | 0.00 | 0.11 | 0.00 | 48 | 1010.2 |
| 20260501195555 | 51 | 225 | 1.0 | 4.0 | 0.00 | 0.11 | 0.00 | 48 | 1010.1 |
| 20260501195015 | 52 | 180 | 2.0 | 5.0 | 0.00 | 0.11 | 0.00 | 45 | 1010.1 |
| 20260501194535 | 51 | 0.0 | 4.0 | 0.00 | 0.11 | 0.00 | 46 | 1010.1 | |
| 20260501194015 | 51 | 338 | 2.0 | 9.0 | 0.00 | 0.11 | 0.00 | 47 | 1010.2 |
| 20260501193515 | 51 | 315 | 4.0 | 9.0 | 0.00 | 0.11 | 0.00 | 46 | 1010.3 |
| 20260501193015 | 51 | 315 | 4.0 | 8.0 | 0.00 | 0.11 | 0.00 | 45 | 1010.4 |
| 20260501192515 | 50 | 315 | 3.0 | 7.0 | 0.00 | 0.11 | 0.00 | 49 | 1010.5 |
| 20260501192035 | 51 | 315 | 4.0 | 7.0 | 0.00 | 0.11 | 0.00 | 47 | 1010.4 |
| 20260501191515 | 51 | 315 | 5.0 | 11.0 | 0.00 | 0.11 | 0.00 | 47 | 1010.4 |
| 20260501191035 | 51 | 315 | 3.0 | 8.0 | 0.00 | 0.11 | 0.00 | 46 | 1010.4 |
| 20260501190535 | 51 | 315 | 6.0 | 19.0 | 0.00 | 0.11 | 0.00 | 48 | 1010.5 |
| 20260501190035 | 51 | 315 | 4.0 | 10.0 | 0.00 | 0.11 | 0.00 | 49 | 1010.5 |
| 20260501185516 | 51 | 315 | 5.0 | 10.0 | 0.00 | 0.11 | 0.00 | 49 | 1010.6 |
| 20260501185015 | 51 | 315 | 4.0 | 11.0 | 0.00 | 0.11 | 0.00 | 48 | 1010.6 |
| 20260501184535 | 51 | 248 | 2.0 | 6.0 | 0.00 | 0.11 | 0.00 | 50 | 1010.7 |
| 20260501184015 | 50 | 315 | 2.0 | 8.0 | 0.00 | 0.11 | 0.00 | 54 | 1010.8 |
| 20260501183515 | 50 | 293 | 3.0 | 11.0 | 0.00 | 0.11 | 0.00 | 51 | 1010.8 |
| 20260501183035 | 49 | 338 | 2.0 | 5.0 | 0.00 | 0.11 | 0.00 | 53 | 1010.9 |
| 20260501182535 | 48 | 315 | 4.0 | 11.0 | 0.00 | 0.11 | 0.00 | 55 | 1011.0 |
| 20260501182016 | 49 | 315 | 5.0 | 11.0 | 0.00 | 0.11 | 0.00 | 54 | 1011.0 |
| 20260501181515 | 48 | 225 | 2.0 | 8.0 | 0.00 | 0.11 | 0.00 | 55 | 1010.9 |
| 20260501181015 | 48 | 248 | 7.0 | 13.0 | 0.00 | 0.12 | 0.00 | 56 | 1011.0 |
| 20260501180535 | 48 | 315 | 6.0 | 12.0 | 0.00 | 0.12 | 0.00 | 55 | 1011.1 |
| 20260501180015 | 48 | 315 | 5.0 | 14.0 | 0.00 | 0.12 | 0.00 | 55 | 1011.1 |
| 20260501175536 | 49 | 315 | 3.0 | 11.0 | 0.00 | 0.12 | 0.00 | 55 | 1011.0 |
| 20260501175015 | 49 | 315 | 5.0 | 12.0 | 0.00 | 0.12 | 0.00 | 52 | 1011.1 |
| 20260501174515 | 49 | 315 | 4.0 | 9.0 | 0.00 | 0.12 | 0.00 | 54 | 1011.0 |
| 20260501174015 | 48 | 338 | 4.0 | 11.0 | 0.00 | 0.12 | 0.00 | 57 | 1011.0 |
| 20260501173535 | 48 | 315 | 5.0 | 11.0 | 0.00 | 0.13 | 0.00 | 54 | 1011.0 |
| 20260501173015 | 48 | 315 | 5.0 | 14.0 | 0.00 | 0.13 | 0.00 | 55 | 1011.0 |
| 20260501172515 | 47 | 315 | 3.0 | 10.0 | 0.00 | 0.13 | 0.00 | 60 | 1011.0 |
| 20260501172015 | 46 | 315 | 6.0 | 15.0 | 0.00 | 0.13 | 0.00 | 59 | 1011.1 |
| 20260501171516 | 46 | 315 | 3.0 | 9.0 | 0.00 | 0.13 | 0.00 | 59 | 1011.1 |
| 20260501171015 | 47 | 315 | 4.0 | 9.0 | 0.00 | 0.13 | 0.00 | 58 | 1011.0 |
| 20260501170515 | 46 | 315 | 5.0 | 13.0 | 0.00 | 0.14 | 0.00 | 58 | 1011.1 |
| 20260501170015 | 46 | 315 | 5.0 | 10.0 | 0.00 | 0.15 | 0.00 | 60 | 1011.2 |
| 20260501165515 | 46 | 315 | 3.0 | 9.0 | 0.00 | 0.16 | 0.00 | 61 | 1011.1 |
| 20260501165015 | 46 | 293 | 2.0 | 6.0 | 0.00 | 0.17 | 0.00 | 60 | 1011.2 |
| 20260501164515 | 46 | 315 | 3.0 | 9.0 | 0.00 | 0.18 | 0.00 | 59 | 1011.1 |
| 20260501164015 | 46 | 315 | 4.0 | 8.0 | 0.00 | 0.19 | 0.00 | 59 | 1011.1 |
| 20260501163516 | 46 | 315 | 5.0 | 11.0 | 0.00 | 0.21 | 0.00 | 63 | 1011.2 |
| 20260501163035 | 45 | 315 | 5.0 | 11.0 | 0.00 | 0.23 | 0.00 | 61 | 1011.2 |
| 20260501162556 | 45 | 315 | 6.0 | 14.0 | 0.00 | 0.25 | 0.00 | 62 | 1011.2 |
| 20260501162016 | 45 | 315 | 5.0 | 13.0 | 0.00 | 0.25 | 0.00 | 64 | 1011.2 |
| 20260501161515 | 46 | 315 | 6.0 | 12.0 | 0.00 | 0.25 | 0.00 | 61 | 1011.3 |
| 20260501161015 | 47 | 338 | 3.0 | 7.0 | 0.00 | 0.25 | 0.00 | 61 | 1011.2 |
| 20260501160515 | 46 | 315 | 2.0 | 9.0 | 0.00 | 0.25 | 0.00 | 62 | 1011.2 |
| 20260501160036 | 46 | 315 | 3.0 | 9.0 | 0.00 | 0.26 | 0.00 | 59 | 1011.4 |
| 20260501155515 | 45 | 315 | 3.0 | 9.0 | 0.00 | 0.26 | 0.00 | 68 | 1011.3 |
| 20260501155016 | 45 | 315 | 4.0 | 9.0 | 0.00 | 0.26 | 0.00 | 64 | 1011.4 |
| 20260501154535 | 45 | 315 | 6.0 | 12.0 | 0.00 | 0.26 | 0.00 | 64 | 1011.5 |
| 20260501154015 | 45 | 180 | 2.0 | 7.0 | 0.00 | 0.27 | 0.00 | 73 | 1011.5 |
| 20260501153515 | 43 | 315 | 2.0 | 8.0 | 0.00 | 0.27 | 0.00 | 72 | 1011.4 |
| 20260501153016 | 43 | 315 | 6.0 | 12.0 | 0.00 | 0.27 | 0.00 | 68 | 1011.5 |
| 20260501152515 | 44 | 315 | 4.0 | 8.0 | 0.00 | 0.27 | 0.00 | 64 | 1011.5 |
| 20260501152015 | 43 | 315 | 7.0 | 13.0 | 0.00 | 0.27 | 0.00 | 68 | 1011.6 |
| 20260501151535 | 44 | 315 | 4.0 | 13.0 | 0.00 | 0.27 | 0.00 | 68 | 1011.5 |
| 20260501151016 | 43 | 315 | 5.0 | 12.0 | 0.00 | 0.27 | 0.00 | 72 | 1011.4 |
| 20260501150556 | 43 | 315 | 6.0 | 15.0 | 0.00 | 0.27 | 0.00 | 68 | 1011.5 |
| 20260501150016 | 43 | 315 | 5.0 | 11.0 | 0.00 | 0.27 | 0.00 | 67 | 1011.5 |
| 20260501145515 | 43 | 315 | 6.0 | 10.0 | 0.00 | 0.27 | 0.00 | 71 | 1011.5 |
| 20260501145015 | 43 | 315 | 5.0 | 8.0 | 0.00 | 0.27 | 0.00 | 69 | 1011.6 |
| 20260501144516 | 43 | 315 | 7.0 | 13.0 | 0.00 | 0.27 | 0.00 | 70 | 1011.5 |
| 20260501144015 | 43 | 270 | 4.0 | 12.0 | 0.00 | 0.27 | 0.00 | 75 | 1011.5 |
| 20260501143535 | 43 | 315 | 4.0 | 9.0 | 0.00 | 0.27 | 0.00 | 72 | 1011.5 |
| 20260501143015 | 43 | 315 | 5.0 | 13.0 | 0.00 | 0.27 | 0.00 | 73 | 1011.4 |
| 20260501142515 | 44 | 315 | 1.0 | 6.0 | 0.00 | 0.27 | 0.00 | 76 | 1011.4 |
| 20260501142016 | 44 | 338 | 2.0 | 6.0 | 0.00 | 0.27 | 0.00 | 76 | 1011.4 |
| 20260501141515 | 43 | 315 | 2.0 | 8.0 | 0.00 | 0.27 | 0.00 | 77 | 1011.3 |